Location: *
(58.7167°N, 26.1833°E)
Time: 14:26:53
(UTC+00:00)

Meteor 1-4 Rocket - Pass Details

Date: 25 August 2019
Orbit: 450 x 504 km, 81.2° (Epoch: 17 September)

Event Time Altitude Azimuth Distance (km) Brightness Sun altitude
Rises 21:06:32 0° 344° (NNW) 2,621 8.0 -19.2°
Reaches altitude 10° 21:08:41 10° 346° (NNW) 1,729 6.6 -19.3°
Maximum altitude 21:12:29 77° 73° (ENE) 523 2.6 -19.4°
Enters shadow 21:13:06 59° 140° (SE) 583 2.6 -19.4°
